Simultaneous Nadir Overpasses (SNOs) Predictions

Prediction of SNOs near US between AQUA and NPP Satellite Orbit:

Table of predicted SNOs near US for the next 10.0 days since TLE Epoch: 1/16/2015
Index Date (AQUA) Time (AQUA) AQUA Lat,Lon Date (NPP) Time (NPP) NPP Lat,Lon Distance(km) Time Diff (sec)
1 01/16/2015 18:17:32 49.89, -80.23 01/16/2015 18:17:33 49.65, -81.68 107.93 1
2 01/16/2015 19:53:55 40.96,-101.66 01/16/2015 19:56:26 40.59,-103.58 166.61 151
3 01/19/2015 07:46:18 20.05, -89.58 01/19/2015 07:42:14 19.98, -89.39 20.48 244
4 01/19/2015 09:18:31 44.06,-107.64 01/19/2015 09:16:51 44.07,-107.76 9.36 100
5 01/22/2015 06:31:01 46.51, -65.04 01/22/2015 06:37:21 46.89, -67.01 156.31 380
6 01/24/2015 17:28:15 49.95, -67.91 01/24/2015 17:26:34 49.78, -69.02 81.87 101
7 01/24/2015 19:06:17 46.91, -91.41 01/24/2015 19:07:09 46.62, -93.07 130.40 52
8 01/24/2015 20:42:39 37.96,-113.10 01/24/2015 20:46:01 37.53,-115.24 193.73 202




NCC Satellite Simultaneous Nadir Overpasses (SNOs) Prediction Service
